Dewpoint
21 18 16 13 13 16 20 15 12 9 7 6 6 7 12 7 7 9 3 5 4 3 8 8 12 9 12 11 16 22 25 29 47 50 51 51 51 51 50 50 53 55 58 63 62 63 64 63 63 63 63 63 62 63 63 62 63 65 66 65 63 64 65 64 64 64 65 63 63 63 63 63 64 64 64 66 66 66 66 67 67 67 67 66 67 66
21 20 18 18 14 15 20 25 25 21 22 16 13 11 11 13 12 8 5 6 8 24 11 17 10 12 12 13 11 17 24 27 48 49 50 50 50 50 49 50 51 54 61 61 61 62 61 61 61 62 62 62 60 61 62 62 63 64 65 65 64 64 64 63 64 64 65 64 64 64 64 64 64 64 64 64 65 66 66 67 67 67 66 66 66 66
22 19 19 17 15 19 21 27 25 23 23 21 17 16 16 16 14 10 9 7 7 18 13 14 12 15 18 17 13 16 19 26 46 49 49 50 50 49 49 51 51 58 60 59 60 60 61 60 61 61 61 61 61 61 62 62 63 64 65 65 65 65 64 63 63 64 65 64 65 65 65 64 64 65 65 65 66 66 65 66 67 67 67 66 66 67
21 17 18 15 18 21 20 19 25 28 26 21 18 16 16 17 16 12 24 6 10 16 24 23 14 21 27 23 21 18 18 20 41 49 49 50 51 49 50 50 51 57 59 58 59 59 60 60 60 60 60 61 61 61 62 62 62 62 65 65 65 64 65 65 64 65 64 64 64 65 65 64 64 64 65 65 65 65 65 65 66 67 67 67 67 68
17 16 16 15 14 16 21 24 24 24 23 29 19 20 20 16 15 16 15 21 27 26 29 18 24 23 25 17 16 19 22 13 12 45 48 49 49 50 51 50 52 55 57 58 58 59 59 59 59 59 60 61 61 61 61 61 61 62 64 65 65 64 64 65 65 64 64 65 64 65 65 65 65 65 65 65 64 65 65 65 65 65 66 67 67 67
18 18 18 13 12 11 13 14 17 25 19 28 32 30 22 22 18 13 18 14 22 18 30 14 13 18 23 17 15 15 14 18 12 9 29 47 48 49 50 50 51 55 56 57 57 58 58 58 58 59 60 60 61 61 61 61 62 62 64 65 65 65 64 65 65 65 64 63 63 63 63 63 63 62 63 63 63 63 64 64 64 65 65 66 66 67
16 22 23 14 14 12 7 8 12 16 23 25 28 23 22 20 19 13 9 15 13 13 25 26 14 21 23 18 16 15 13 10 19 12 10 27 46 47 48 48 50 55 55 55 58 58 58 58 58 58 59 60 61 62 62 62 64 64 65 65 65 65 65 65 66 65 65 64 64 63 63 63 62 62 63 63 63 64 64 65 64 64 65 66 66 66
15 14 17 18 15 11 9 7 12 16 22 23 29 23 20 17 13 12 9 8 15 25 31 25 14 12 11 16 23 20 15 9 10 16 14 17 26 46 47 49 53 55 55 55 57 58 58 58 58 58 59 60 61 63 64 64 64 65 65 65 65 65 65 65 66 65 65 64 64 63 63 62 62 62 62 63 63 63 65 65 64 65 65 65 65 65
25 21 22 20 24 14 10 12 27 21 21 22 24 19 16 12 13 10 9 13 19 18 16 15 17 9 11 16 17 11 10 18 22 21 27 21 24 42 48 50 54 55 56 57 58 58 58 57 57 58 58 60 61 62 64 64 64 65 66 66 65 64 64 65 65 65 65 65 64 63 63 62 62 63 63 64 64 64 64 64 64 64 65 64 63 64
20 19 17 16 16 14 15 15 17 20 21 21 17 16 15 11 14 17 21 14 21 14 15 18 24 8 10 25 15 14 20 32 35 38 38 39 44 45 47 53 56 56 57 59 58 58 58 58 58 58 58 60 60 62 63 64 64 64 65 65 65 64 64 64 65 64 64 64 64 63 62 62 62 62 63 63 63 63 62 62 63 63 63 63 63 63
15 31 24 16 13 17 20 22 19 15 14 16 14 13 11 9 15 24 22 19 18 10 18 18 22 10 7 20 29 31 34 35 37 39 40 41 44 47 50 53 55 57 58 59 59 59 59 59 58 59 59 59 60 62 63 63 63 63 64 64 64 64 64 64 64 64 64 63 64 63 62 62 62 63 62 62 61 62 61 61 61 61 61 61 62 63
11 12 16 18 22 18 19 19 17 16 13 9 14 11 14 20 17 19 20 19 10 15 17 11 13 16 7 18 37 38 41 41 39 38 40 41 43 45 48 50 53 54 56 58 59 59 59 59 59 59 59 59 60 61 61 62 62 62 63 64 64 63 63 64 64 64 64 64 64 64 63 63 63 63 62 61 61 62 61 61 61 60 61 61 61 62
12 10 17 18 25 16 17 17 13 13 11 7 13 16 14 15 16 11 12 10 12 14 16 8 6 8 10 30 37 41 41 42 43 40 38 39 44 47 48 53 56 57 54 59 60 59 59 58 58 58 58 58 59 60 60 60 60 61 62 63 63 63 64 64 64 64 64 63 63 63 63 63 63 63 62 62 62 62 61 61 61 60 60 60 61 61
14 11 10 12 17 18 18 14 14 10 11 12 10 19 13 10 10 7 14 13 14 15 20 13 13 14 35 37 40 42 43 44 46 46 44 44 46 48 52 56 56 56 55 54 55 56 56 56 56 57 58 58 58 59 59 60 60 62 62 63 63 64 64 64 64 63 62 63 63 62 62 63 63 62 62 62 62 62 61 61 61 60 60 61 61 62
11 10 10 16 18 17 14 17 15 19 14 11 12 11 19 15 15 8 10 7 11 13 22 20 20 14 31 37 43 44 44 45 47 48 48 49 50 52 54 54 55 54 53 53 53 55 55 56 57 58 59 58 57 58 59 59 62 63 63 62 63 63 63 64 63 61 61 63 62 62 63 62 63 63 63 63 63 62 61 61 61 61 61 61 61 61
13 19 19 12 14 17 16 18 19 17 13 14 12 10 14 15 16 9 15 11 18 18 23 22 22 35 36 45 45 45 46 48 50 51 52 52 52 53 53 54 55 55 55 55 56 56 56 57 57 57 59 59 59 59 59 58 60 62 62 61 62 63 63 63 61 62 62 61 62 62 62 60 62 63 63 62 62 62 62 62 61 61 61 61 61 61
15 21 15 12 12 17 18 19 18 18 15 21 9 11 13 21 14 14 15 24 18 17 16 19 35 38 40 40 41 44 47 48 49 51 51 51 51 52 52 53 54 55 55 55 56 56 56 57 57 58 58 59 59 60 59 60 60 59 61 63 62 63 63 62 61 61 61 62 61 62 63 62 60 61 62 62 62 61 62 61 61 61 61 60 60 60
22 24 20 12 11 16 18 18 17 16 14 13 14 14 13 13 19 16 12 15 11 14 15 19 25 34 33 30 41 42 46 47 48 50 51 51 51 52 52 53 54 55 55 55 56 56 57 57 56 57 59 59 59 59 59 60 61 61 61 60 60 60 60 60 60 61 60 60 61 61 62 62 61 61 61 61 62 63 61 61 61 60 59 59 59 59
16 13 19 19 19 13 14 14 13 12 12 9 11 14 13 14 12 19 6 7 10 11 14 14 26 30 31 35 39 41 45 46 47 49 51 51 51 51 52 52 53 54 54 55 55 56 57 56 56 57 58 59 60 59 59 60 60 61 61 60 60 60 61 61 61 61 61 62 62 62 63 63 62 61 62 63 62 61 59 59 59 59 59 59 59 59
28 17 21 20 18 17 14 14 17 14 12 13 12 9 14 23 21 10 15 13 19 16 12 16 25 26 40 38 42 44 46 46 47 50 51 50 51 51 51 52 52 53 53 54 55 56 57 57 57 57 58 59 59 59 59 59 60 60 60 60 60 61 61 61 60 61 61 61 61 63 63 62 62 62 62 62 60 58 58 58 59 59 58 58 59 59
18 29 18 27 18 16 18 16 18 17 15 13 13 14 16 25 27 16 26 10 18 16 19 20 21 28 38 43 45 46 47 48 49 50 51 50 50 51 51 52 52 53 54 54 55 55 56 57 57 57 58 59 59 59 59 59 59 59 59 59 60 60 60 60 60 61 61 61 62 62 62 61 61 61 61 62 61 58 58 58 59 59 59 58 58 58
18 19 19 24 19 21 18 14 14 14 15 16 14 16 13 18 17 11 19 21 20 15 16 21 21 31 42 48 47 47 48 49 50 50 50 51 50 51 52 52 53 53 54 55 55 56 56 57 58 58 58 59 59 59 59 59 59 59 59 59 59 60 60 60 60 60 61 61 62 61 61 61 61 61 60 60 60 58 58 58 59 59 58 57 58 57
30 29 27 19 21 21 17 15 16 14 15 14 10 12 10 17 18 18 13 23 22 27 28 29 27 27 43 48 47 47 49 51 50 49 49 49 50 51 52 52 53 53 54 54 55 54 54 55 57 58 59 58 59 59 59 59 59 59 60 60 60 59 59 61 61 61 61 60 60 60 61 61 60 60 60 60 59 58 58 59 58 58 58 57 57 58
44 23 22 20 21 22 21 19 18 14 13 13 17 23 13 13 17 20 21 28 23 27 24 24 25 30 45 49 48 48 49 50 50 50 48 48 48 49 49 50 51 52 52 53 52 53 53 54 55 55 57 58 58 58 58 59 59 59 59 60 60 59 60 60 60 61 60 60 60 60 60 60 60 60 60 60 59 58 58 58 57 58 57 56 57 58
27 27 25 21 18 21 22 20 19 23 24 25 27 36 25 15 19 27 33 30 25 26 26 25 24 30 43 49 49 48 47 48 48 48 48 48 48 49 49 50 49 50 50 51 50 51 51 52 52 53 54 55 57 57 58 58 58 59 60 60 60 60 60 60 60 60 60 60 60 59 59 59 60 60 60 60 59 57 57 56 56 57 56 56 57 56
31 31 26 22 21 16 14 17 27 29 33 32 34 37 38 31 32 29 24 26 24 30 27 27 30 38 44 46 47 46 47 47 48 49 48 48 48 48 48 48 48 47 47 47 48 49 49 50 50 51 52 53 54 55 56 56 57 57 58 60 60 60 60 59 60 59 59 60 59 59 59 59 59 59 60 60 58 57 56 55 56 57 57 56 57 54
35 37 37 32 28 28 30 34 36 35 35 33 37 39 39 37 37 37 32 28 24 29 31 35 36 39 41 44 45 46 46 45 46 47 47 47 47 47 47 46 46 46 45 45 45 46 47 48 48 48 49 51 52 53 54 54 55 55 56 58 60 60 60 59 59 60 59 59 59 58 59 59 58 59 59 60 58 57 56 55 56 56 56 57 56 53
37 32 38 38 35 32 33 37 40 35 33 36 38 39 39 40 39 35 30 30 36 30 28 35 39 39 40 44 45 45 45 45 46 46 46 46 46 46 45 45 45 44 43 43 43 43 45 47 47 47 47 48 50 51 52 52 53 53 54 55 57 59 59 58 58 59 59 59 58 58 58 58 59 60 59 59 57 57 56 55 56 55 55 56 54 54
38 29 38 38 37 38 36 37 38 37 37 38 38 39 39 40 40 37 37 39 38 28 29 35 39 39 42 43 43 44 44 44 45 45 46 46 46 45 44 43 43 43 43 42 41 41 42 44 46 46 46 46 47 49 50 51 51 51 52 53 54 55 58 59 59 59 59 59 59 59 59 59 59 59 59 58 58 57 56 55 56 55 55 54 54 56
37 32 37 38 35 37 39 39 38 36 38 37 37 38 39 39 39 40 40 41 39 36 36 39 40 40 43 43 43 43 43 42 42 43 43 44 44 45 44 43 43 44 44 42 41 41 41 41 42 43 43 43 45 48 49 49 49 49 50 51 52 52 54 56 57 58 59 59 59 59 59 59 59 59 58 58 57 56 55 56 56 55 54 53 54 53
37 32 38 37 32 34 39 40 39 37 37 37 37 38 39 38 38 39 40 39 40 40 40 40 39 38 43 44 42 42 41 41 40 40 40 40 42 43 43 42 42 43 43 43 41 41 40 39 39 40 41 41 44 48 48 47 47 48 48 49 50 51 52 53 54 56 58 58 59 59 58 58 58 58 57 57 57 57 57 57 56 53 53 55 55 52
38 32 40 34 30 29 37 37 38 38 37 36 35 36 37 37 36 39 36 40 38 38 40 39 36 36 42 42 40 40 40 40 39 40 40 39 39 40 41 42 41 42 42 41 41 41 41 40 39 38 37 38 42 46 46 46 46 46 46 47 48 49 50 51 52 53 57 57 58 58 58 58 57 57 56 57 56 57 56 57 56 56 56 56 56 56
38 33 31 31 30 28 35 38 37 36 33 30 31 35 37 39 41 40 40 41 41 41 37 34 37 41 41 39 38 38 38 38 38 39 39 39 40 40 39 40 40 41 40 41 40 40 40 39 38 38 38 37 38 43 44 44 44 45 45 46 47 48 48 49 51 51 52 56 58 58 58 58 57 56 56 55 56 55 56 56 56 56 56 56 56 56
38 34 30 33 28 29 36 37 35 27 24 28 36 39 39 38 39 38 38 39 41 41 38 40 40 40 39 38 37 36 36 37 38 40 40 39 39 39 39 40 39 39 40 42 41 40 40 39 39 38 38 37 37 38 43 42 42 42 44 44 44 46 47 47 48 50 51 52 55 57 57 57 56 55 55 55 55 55 54 55 55 56 57 56 55 55
34 34 29 31 27 30 33 31 28 23 26 36 40 38 39 41 39 38 38 39 40 39 39 37 37 37 38 37 37 37 37 38 38 39 39 39 40 40 39 39 39 40 40 40 41 40 40 39 39 39 38 38 38 38 38 39 41 40 39 40 41 44 45 46 47 47 49 50 52 55 56 56 55 55 55 55 54 54 54 54 55 55 56 57 57 56
30 30 30 30 29 30 28 26 22 26 33 39 37 38 39 39 38 38 36 38 39 38 38 37 38 37 37 37 37 37 37 37 37 38 37 38 39 39 39 39 39 39 39 39 40 41 41 39 38 39 39 39 38 37 37 37 38 38 38 38 39 41 43 44 44 45 46 48 50 52 55 56 55 55 55 54 54 54 54 54 54 55 55 56 57 57
37 34 31 29 30 27 27 29 30 34 33 34 34 36 36 35 36 35 32 35 39 38 38 37 37 37 37 37 37 37 37 36 35 36 38 38 39 40 40 39 40 39 39 38 39 41 42 39 38 37 39 39 38 37 37 37 37 37 37 37 37 37 39 42 42 43 44 45 48 51 52 53 55 55 55 54 53 53 53 54 54 55 56 56 57 56
37 28 30 29 27 30 29 28 29 28 25 30 35 38 38 41 39 40 37 34 39 39 38 37 37 37 37 37 37 38 38 33 31 33 37 39 40 39 40 40 40 40 40 40 40 41 41 41 40 38 36 36 38 38 39 37 37 36 36 36 36 36 37 38 40 41 42 43 45 50 51 51 51 52 53 54 55 55 55 55 55 55 55 55 55 55
36 38 37 29 28 27 27 26 26 26 27 33 34 36 37 39 41 41 35 31 38 40 38 38 37 37 38 38 38 39 38 31 30 33 37 39 39 39 39 39 39 40 40 41 40 38 39 40 41 41 38 35 36 37 38 38 39 37 36 36 35 35 36 37 38 40 41 41 41 42 47 51 51 51 51 51 53 54 55 55 55 55 55 55 55 55
32 29 32 30 24 26 26 27 25 29 28 33 34 35 36 37 40 38 29 28 38 41 39 39 39 39 38 37 36 35 34 30 30 33 38 39 39 39 40 39 40 40 40 41 41 39 36 36 36 37 38 35 35 36 37 37 37 38 38 37 36 35 35 36 37 38 39 40 40 40 41 44 50 51 50 50 50 52 53 54 55 54 54 54 54 53
29 29 30 28 27 28 28 26 29 29 33 34 35 36 36 39 39 31 27 32 39 39 38 38 37 36 36 35 35 31 33 36 36 37 37 37 36 36 37 38 39 38 39 39 41 41 39 37 36 35 35 35 35 35 36 37 36 36 36 36 37 37 37 37 37 38 38 38 38 39 39 40 41 43 44 46 48 49 50 51 52 52 52 51 51 51
25 27 30 30 30 27 25 27 27 29 33 35 35 36 38 36 30 28 35 41 38 37 37 37 35 35 35 35 34 34 34 36 36 37 36 36 37 37 38 37 37 38 38 38 39 40 37 37 38 38 38 35 35 35 35 35 35 36 35 35 36 37 39 39 38 38 38 38 38 39 39 39 39 40 41 40 40 41 45 48 51 51 51 50 50 48
24 27 25 27 29 28 26 22 23 22 31 36 36 37 36 32 32 38 39 39 40 38 37 36 35 35 35 34 35 35 35 35 35 35 35 36 36 36 36 37 37 38 39 39 37 37 38 36 35 35 35 36 36 36 36 35 34 34 35 35 36 38 39 40 40 39 39 40 39 39 38 38 38 39 40 40 39 40 39 40 40 44 49 49 49 49
33 28 27 27 29 28 27 23 23 29 33 37 36 31 35 37 40 41 38 36 38 38 36 36 35 36 36 35 35 35 35 35 35 35 36 36 37 37 37 37 38 38 40 41 41 39 39 37 37 36 36 36 36 36 36 36 35 35 34 35 37 38 38 38 39 40 40 39 38 38 38 37 37 37 37 37 38 38 38 38 39 39 39 43 47 47
32 31 30 28 31 30 27 29 33 35 36 37 38 38 40 42 43 42 37 36 35 35 35 34 34 35 36 36 35 35 35 35 35 36 36 36 37 37 37 37 38 38 39 40 42 42 41 39 40 39 39 37 36 35 36 36 36 34 34 35 38 39 38 37 37 35 36 38 39 37 37 38 39 38 37 35 35 36 37 37 38 38 38 38 37 37
32 33 33 32 31 34 36 36 37 36 36 37 39 40 39 39 40 38 36 34 34 35 34 33 34 34 35 36 35 35 36 36 36 36 36 36 36 36 37 37 37 39 40 40 39 39 38 38 39 39 39 39 39 37 36 35 36 35 35 37 38 38 39 38 36 36 34 31 31 33 34 36 37 37 37 37 35 35 35 36 36 37 37 38 37 37
34 34 32 30 31 29 25 34 34 34 36 36 37 38 38 39 39 37 35 35 34 34 34 34 34 35 36 36 35 35 36 37 37 37 37 36 36 36 36 37 37 38 38 39 40 40 40 39 38 37 36 35 36 35 35 34 35 36 37 38 38 38 38 37 35 36 36 33 32 31 33 34 34 34 35 35 36 35 35 34 34 34 35 36 36 36
29 31 30 30 30 29 28 33 35 36 36 37 37 35 35 38 38 36 35 36 35 35 34 34 34 34 35 34 35 35 35 36 36 36 36 36 36 37 37 37 37 38 39 40 40 40 39 38 39 39 38 37 36 35 35 34 34 35 36 38 40 39 38 38 37 36 34 33 31 29 30 31 31 31 33 34 35 35 34 33 34 33 34 34 35 35
32 33 30 30 30 32 34 35 35 35 35 35 34 32 32 33 35 36 35 35 35 34 35 35 35 35 35 34 35 35 34 34 34 33 32 32 32 32 32 34 35 37 37 38 38 38 38 37 37 37 38 38 37 36 35 34 34 35 35 37 38 39 37 34 34 33 33 36 32 29 29 30 30 30 31 32 33 34 35 35 33 33 33 35 35 35
31 30 32 30 29 28 28 31 34 28 29 33 34 32 31 31 31 31 31 31 32 31 31 31 31 32 33 34 34 34 33 33 32 32 31 32 32 32 33 33 34 35 36 38 38 37 37 38 36 35 34 35 36 36 36 35 35 36 36 36 36 36 37 35 33 32 32 32 33 33 30 31 31 32 32 31 32 33 33 33 34 34 33 34 35 35
30 32 30 30 29 28 34 35 35 34 35 36 36 31 30 31 30 30 30 30 31 31 31 30 29 29 29 29 30 29 29 31 30 29 28 27 28 30 29 29 30 32 32 32 32 32 36 36 36 34 34 34 35 34 35 35 35 36 36 36 36 36 35 34 34 33 32 32 32 32 33 33 33 33 33 32 32 33 32 32 33 34 34 35 35 35